FW0286 Weather Reports


Display with metric or nautical units.
time (UTC)temp
F
wind
direction
speed
MPH
gust
MPH
rain 1hr
in
rain 24hr
in
rain mn
in
humidity
%
barometer
mb
20260506073241 62 11 0.0 0.0 0.00 0.00 0.00 81 1014.6
20260506072736 62 11 0.0 0.0 0.00 0.00 0.00 82 1014.6
20260506072222 62 11 0.0 0.0 0.00 0.00 0.00 82 1014.6
20260506071658 62 12 0.0 0.0 0.00 0.00 0.00 81 1014.6
20260506071152 62 12 0.0 0.0 0.00 0.00 0.00 81 1014.3
20260506071146 62 12 0.0 0.0 0.00 0.00 0.00 81 1014.2
20260506070140 63 11 0.0 0.0 0.00 0.00 0.00 81 1014.4
20260506062430 63 11 0.0 0.0 0.00 0.00 0.00 80 1014.7
20260506062350 64 11 0.0 0.0 0.00 0.00 0.00 79 1014.8
20260506061350 64 11 0.0 0.0 0.00 0.00 0.00 79 1014.8
20260506060850 64 12 0.0 0.0 0.00 0.00 0.00 78 1014.8
20260506060350 64 11 0.0 0.0 0.00 0.00 0.00 78 1014.9
20260506051234 65 13 0.0 0.0 0.00 0.00 0.00 76 1015.1
20260506050733 65 12 0.0 1.0 0.00 0.00 0.00 76 1015.2
20260506050226 65 12 0.0 1.0 0.00 0.00 0.00 76 1015.2
20260506044658 66 11 0.0 1.0 0.00 0.00 0.00 74 1015.1
20260506044654 66 11 0.0 1.0 0.00 0.00 0.00 75 1015.2
20260506044148 66 12 0.0 0.0 0.00 0.00 0.00 73 1015.1
20260506043752 66 11 0.0 0.0 0.00 0.00 0.00 74 1015.1
20260506042642 66 12 0.0 5.0 0.00 0.00 0.00 73 1015.2
20260506042134 66 12 0.0 5.0 0.00 0.00 0.00 73 1015.2
20260506041623 66 12 0.0 0.0 0.00 0.00 0.00 73 1015.1
20260506041102 66 12 0.0 0.0 0.00 0.00 0.00 72 1015.2
20260506040601 66 12 0.0 0.0 0.00 0.00 0.00 72 1015.2
20260506040100 66 12 0.0 0.0 0.00 0.00 0.00 72 1015.1
20260506035559 67 12 0.0 0.0 0.00 0.00 0.00 71 1015.2
20260506035053 67 11 0.0 0.0 0.00 0.00 0.00 72 1015.3
20260506034555 67 12 0.0 2.0 0.00 0.00 0.00 70 1015.2
20260506034550 67 11 0.0 0.0 0.00 0.00 0.00 71 1015.2
20260506034049 67 12 0.0 0.0 0.00 0.00 0.00 71 1015.2
20260506033025 67 11 0.0 2.0 0.00 0.00 0.00 69 1015.1
20260506032454 67 12 0.0 0.0 0.00 0.00 0.00 68 1015.0
20260506031956 68 12 0.0 0.0 0.00 0.00 0.00 68 1015.0
20260506031450 68 12 0.0 1.0 0.00 0.00 0.00 68 1014.9
20260506030951 68 12 0.0 1.0 0.00 0.00 0.00 68 1014.8
20260506030450 68 13 0.0 0.0 0.00 0.00 0.00 67 1014.9
20260506025942 68 12 0.0 0.0 0.00 0.00 0.00 65 1014.9
20260506025443 69 11 0.0 0.0 0.00 0.00 0.00 65 1014.9
20260506024915 69 12 0.0 4.0 0.00 0.00 0.00 64 1014.9
20260506024409 69 12 0.0 4.0 0.00 0.00 0.00 63 1015.0
20260506023909 69 12 0.0 4.0 0.00 0.00 0.00 64 1015.1
20260506023401 69 12 0.0 4.0 0.00 0.00 0.00 64 1015.3
20260506022859 69 12 0.0 6.0 0.00 0.00 0.00 63 1015.2
20260506022353 70 12 0.0 6.0 0.00 0.00 0.00 63 1015.2
20260506021838 70 11 0.0 3.0 0.00 0.00 0.00 63 1015.3
20260506021337 70 12 0.0 0.0 0.00 0.00 0.00 62 1015.3
20260506020809 70 11 0.0 1.0 0.00 0.00 0.00 63 1015.2
20260506020304 70 12 0.0 1.0 0.00 0.00 0.00 63 1015.2
20260506015750 71 11 0.0 2.0 0.00 0.00 0.00 62 1015.1
20260506015251 71 12 0.0 2.0 0.00 0.00 0.00 61 1014.9
20260506014742 71 11 0.0 0.0 0.00 0.00 0.00 61 1015.0
20260506014737 71 12 0.0 7.0 0.00 0.00 0.00 61 1014.9
20260506013729 71 12 0.0 7.0 0.00 0.00 0.00 60 1014.8
20260506013223 71 13 0.0 3.0 0.00 0.00 0.00 60 1014.8
20260506012710 72 12 0.0 5.0 0.00 0.00 0.00 59 1014.7
20260506012154 72 12 0.0 5.0 0.00 0.00 0.00 59 1014.6
20260506012148 72 12 0.0 0.0 0.00 0.00 0.00 60 1014.6
20260506011140 72 12 0.0 1.0 0.00 0.00 0.00 58 1014.5
20260506010641 72 12 0.0 1.0 0.00 0.00 0.00 58 1014.3
20260506010135 72 12 0.0 2.0 0.00 0.00 0.00 56 1014.2
20260506005611 73 13 0.0 2.0 0.00 0.00 0.00 56 1014.1
20260506005050 73 12 0.0 0.0 0.00 0.00 0.00 55 1014.0
20260506004550 73 12 0.0 0.0 0.00 0.00 0.00 53 1014.0
20260506004054 73 12 0.0 0.0 0.00 0.00 0.00 52 1013.8
20260506004048 73 12 0.0 0.0 0.00 0.00 0.00 51 1013.7
20260506003031 74 12 0.0 0.0 0.00 0.00 0.00 50 1013.8
20260506003024 74 12 0.0 0.0 0.00 0.00 0.00 48 1013.8
20260506001959 74 12 0.0 0.0 0.00 0.00 0.00 47 1013.9
20260506001450 74 12 0.0 0.0 0.00 0.00 0.00 47 1013.9
20260506000932 75 12 0.0 0.0 0.00 0.00 0.00 47 1013.8
20260506000425 75 12 0.0 0.0 0.00 0.00 0.00 47 1013.7
20260505235917 76 12 0.0 0.0 0.00 0.00 0.00 46 1013.6
20260505235354 76 12 0.0 0.0 0.00 0.00 0.00 44 1013.5
20260505234855 76 12 0.0 0.0 0.00 0.00 0.00 45 1013.5
20260505234355 77 11 0.0 0.0 0.00 0.00 0.00 44 1013.6
20260505233839 77 11 0.0 0.0 0.00 0.00 0.00 43 1013.6
20260505233339 77 12 0.0 0.0 0.00 0.00 0.00 42 1013.6
20260505232837 78 11 0.0 0.0 0.00 0.00 0.00 42 1013.6
20260505232329 78 12 0.0 0.0 0.00 0.00 0.00 41 1013.6
20260505231805 78 12 0.0 0.0 0.00 0.00 0.00 42 1013.7
20260505231303 78 13 0.0 0.0 0.00 0.00 0.00 42 1013.7
20260505231254 78 12 0.0 0.0 0.00 0.00 0.00 41 1013.7
20260505230250 79 12 0.0 0.0 0.00 0.00 0.00 40 1013.7
20260505225747 79 12 0.0 0.0 0.00 0.00 0.00 41 1013.7
20260505225740 79 12 0.0 0.0 0.00 0.00 0.00 40 1013.8
20260505224733 79 12 0.0 0.0 0.00 0.00 0.00 40 1013.7
20260505224226 80 12 0.0 0.0 0.00 0.00 0.00 42 1013.8
20260505223717 80 11 0.0 0.0 0.00 0.00 0.00 41 1013.8
20260505223203 80 13 0.0 0.0 0.00 0.00 0.00 39 1013.6
20260505222700 81 12 0.0 0.0 0.00 0.00 0.00 39 1013.7
20260505222154 81 12 0.0 1.0 0.00 0.00 0.00 39 1013.7
20260505221655 81 11 0.0 1.0 0.00 0.00 0.00 37 1013.7
20260505221153 81 12 0.0 0.0 0.00 0.00 0.00 37 1013.7
20260505220655 82 12 0.0 0.0 0.00 0.00 0.00 37 1013.7
20260505220147 81 11 0.0 0.0 0.00 0.00 0.00 37 1014.0
20260505220143 82 12 0.0 0.0 0.00 0.00 0.00 37 1014.0
20260505215133 82 11 0.0 0.0 0.00 0.00 0.00 37 1013.9
20260505214633 82 12 0.0 0.0 0.00 0.00 0.00 37 1014.0
20260505214123 82 13 0.0 0.0 0.00 0.00 0.00 38 1013.9
20260505213621 82 11 0.0 0.0 0.00 0.00 0.00 37 1013.9
20260505213113 82 11 0.0 0.0 0.00 0.00 0.00 36 1013.9
20260505212603 83 12 0.0 0.0 0.00 0.00 0.00 36 1014.1
20260505212103 82 13 0.0 1.0 0.00 0.00 0.00 37 1014.1
20260505211601 82 12 0.0 1.0 0.00 0.00 0.00 36 1014.2
20260505211055 83 12 0.0 0.0 0.00 0.00 0.00 37 1014.2
20260505210553 83 12 0.0 0.0 0.00 0.00 0.00 36 1014.3
20260505210051 83 12 0.0 4.0 0.00 0.00 0.00 37 1014.2
20260505210042 83 11 0.0 4.0 0.00 0.00 0.00 35 1014.3
20260505205027 82 11 0.0 4.0 0.00 0.00 0.00 36 1014.3
20260505204504 82 12 0.0 7.0 0.00 0.00 0.00 35 1014.4
20260505204005 83 12 0.0 7.0 0.00 0.00 0.00 36 1014.4
20260505203502 83 13 0.0 5.0 0.00 0.00 0.00 35 1014.4
20260505203001 82 11 0.0 0.0 0.00 0.00 0.00 36 1014.4
20260505202449 82 12 0.0 0.0 0.00 0.00 0.00 37 1014.4
20260505201942 82 12 0.0 0.0 0.00 0.00 0.00 38 1014.4
20260505201438 82 12 0.0 1.0 0.00 0.00 0.00 38 1014.6
20260505200929 82 12 0.0 1.0 0.00 0.00 0.00 36 1014.6
20260505200425 83 12 0.0 2.0 0.00 0.00 0.00 36 1014.6
20260505200402 83 11 0.0 0.0 0.00 0.00 0.00 36 1015.0
20260505200007 83 12 0.0 2.0 0.00 0.00 0.00 36 1014.8
20260505195355 83 12 0.0 1.0 0.00 0.00 0.00 36 1014.8
20260505194853 82 12 0.0 1.0 0.00 0.00 0.00 37 1014.9
20260505194351 82 12 0.0 0.0 0.00 0.00 0.00 37 1015.0
20260505193351 83 11 0.0 0.0 0.00 0.00 0.00 37 1015.1
20260505192850 83 12 0.0 2.0 0.00 0.00 0.00 38 1015.1
20260505192346 83 13 0.0 2.0 0.00 0.00 0.00 37 1015.2
20260505191848 83 12 0.0 0.0 0.00 0.00 0.00 35 1015.2
20260505191345 83 12 0.0 8.0 0.00 0.00 0.00 37 1015.4
20260505190827 83 12 0.0 8.0 0.00 0.00 0.00 37 1015.5
20260505190327 83 11 0.0 0.0 0.00 0.00 0.00 38 1015.5
20260505185825 83 13 0.0 0.0 0.00 0.00 0.00 42 1015.6
20260505185307 82 11 0.0 0.0 0.00 0.00 0.00 39 1015.8
20260505184804 82 12 0.0 1.0 0.00 0.00 0.00 40 1015.9
20260505184251 82 12 0.0 1.0 0.00 0.00 0.00 38 1015.9
20260505183728 82 13 0.0 0.0 0.00 0.00 0.00 39 1015.9
20260505183229 82 11 0.0 0.0 0.00 0.00 0.00 42 1016.0
20260505182721 82 11 0.0 0.0 0.00 0.00 0.00 38 1016.0
20260505182215 82 12 0.0 1.0 0.00 0.00 0.00 39 1016.0
20260505181716 82 11 0.0 1.0 0.00 0.00 0.00 39 1016.0
20260505181210 82 11 0.0 3.0 0.00 0.00 0.00 36 1015.9
20260505180653 82 12 0.0 3.0 0.00 0.00 0.00 38 1016.0
20260505180154 82 12 0.0 0.0 0.00 0.00 0.00 38 1015.9
20260505175655 81 12 0.0 0.0 0.00 0.00 0.00 37 1015.9
20260505175642 82 11 0.0 0.0 0.00 0.00 0.00 38 1016.1
20260505175246 81 11 0.0 0.0 0.00 0.00 0.00 37 1015.9
20260505174133 82 12 0.0 0.0 0.00 0.00 0.00 39 1016.0
20260505173629 82 11 0.0 0.0 0.00 0.00 0.00 37 1016.0
20260505173128 82 13 0.0 0.0 0.00 0.00 0.00 40 1016.3
20260505172614 82 12 0.0 7.0 0.00 0.00 0.00 41 1016.4
20260505172609 81 12 0.0 0.0 0.00 0.00 0.00 43 1016.4
20260505172214 82 12 0.0 7.0 0.00 0.00 0.00 43 1016.4
20260505171103 82 12 0.0 1.0 0.00 0.00 0.00 39 1016.5
20260505170603 82 13 0.0 1.0 0.00 0.00 0.00 38 1016.6
20260505170101 81 12 0.0 0.0 0.00 0.00 0.00 40 1016.6
20260505165554 81 12 0.0 0.0 0.00 0.00 0.00 41 1016.7
20260505165043 80 12 0.0 2.0 0.00 0.00 0.00 41 1016.7
20260505164541 80 12 0.0 2.0 0.00 0.00 0.00 37 1016.7
20260505164040 80 12 0.0 3.0 0.00 0.00 0.00 42 1016.8
20260505164035 80 11 0.0 2.0 0.00 0.00 0.00 40 1016.8
20260505163027 80 11 0.0 3.0 0.00 0.00 0.00 42 1017.0
20260505162528 80 12 0.0 1.0 0.00 0.00 0.00 39 1017.0
20260505162012 79 12 0.0 0.0 0.00 0.00 0.00 43 1017.2
20260505161512 80 12 0.0 0.0 0.00 0.00 0.00 48 1017.3
20260505160954 80 11 0.0 0.0 0.00 0.00 0.00 47 1017.2
20260505160451 79 12 0.0 0.0 0.00 0.00 0.00 48 1017.4
20260505152934 77 12 0.0 1.0 0.00 0.00 0.00 53 1017.4
20260505152431 77 11 0.0 0.0 0.00 0.00 0.00 54 1017.5
20260505152425 76 12 0.0 0.0 0.00 0.00 0.00 55 1017.5
20260505151910 76 11 0.0 0.0 0.00 0.00 0.00 57 1017.5
20260505151514 77 12 0.0 0.0 0.00 0.00 0.00 57 1017.5
20260505150903 76 11 0.0 0.0 0.00 0.00 0.00 57 1017.5
20260505140242 71 12 0.0 0.0 0.00 0.00 0.00 63 1017.3
20260505140238 72 12 0.0 0.0 0.00 0.00 0.00 63 1017.3
20260505130150 67 12 0.0 0.0 0.00 0.00 0.00 69 1017.3
20260505124648 64 12 0.0 0.0 0.00 0.00 0.00 74 1017.2
20260505123646 63 12 0.0 0.0 0.00 0.00 0.00 76 1017.2
20260505123556 63 12 0.0 0.0 0.00 0.00 0.00 73 1017.1
20260505123203 62 12 0.0 0.0 0.00 0.00 0.00 75 1017.1
20260505122700 62 12 0.0 0.0 0.00 0.00 0.00 74 1017.1
20260505121550 63 12 0.0 0.0 0.00 0.00 0.00 73 1017.2
20260505121051 64 11 0.0 0.0 0.00 0.00 0.00 70 1017.0
20260505120548 65 12 0.0 0.0 0.00 0.00 0.00 69 1017.1
20260505120046 64 11 0.0 0.0 0.00 0.00 0.00 68 1017.0
20260505115548 65 12 0.0 0.0 0.00 0.00 0.00 68 1017.0
20260505115542 65 12 0.0 0.0 0.00 0.00 0.00 68 1017.0
20260505114534 64 11 0.0 0.0 0.00 0.00 0.00 70 1017.0
20260505114034 64 12 0.0 0.0 0.00 0.00 0.00 70 1017.1
20260505113533 64 11 0.0 0.0 0.00 0.00 0.00 69 1017.0
20260505113026 64 11 0.0 0.0 0.00 0.00 0.00 71 1016.9
20260505112529 62 11 0.0 0.0 0.00 0.00 0.00 74 1016.9
20260505112022 60 12 0.0 0.0 0.00 0.00 0.00 78 1016.9
20260505111524 59 11 0.0 0.0 0.00 0.00 0.00 80 1016.8
20260505111030 58 12 0.0 0.0 0.00 0.00 0.00 84 1016.7
20260505111025 58 11 0.0 0.0 0.00 0.00 0.00 82 1016.7
20260505101954 54 11 0.0 0.0 0.00 0.00 0.00 88 1016.1
20260505101500 55 11 0.0 0.0 0.00 0.00 0.00 87 1016.0
20260505101456 54 12 0.0 0.0 0.00 0.00 0.00 88 1016.1
20260505100954 54 11 0.0 0.0 0.00 0.00 0.00 87 1016.0
20260505095954 55 11 0.0 0.0 0.00 0.00 0.00 86 1015.9
20260505095454 55 11 0.0 0.0 0.00 0.00 0.00 86 1015.8
20260505094953 56 11 0.0 0.0 0.00 0.00 0.00 86 1015.9
20260505094454 56 11 0.0 0.0 0.00 0.00 0.00 87 1015.9
20260505093952 56 11 0.0 0.0 0.00 0.00 0.00 87 1015.8
20260505093452 55 11 0.0 0.0 0.00 0.00 0.00 86 1015.8
20260505092951 56 12 0.0 0.0 0.00 0.00 0.00 86 1015.7
20260505092452 56 11 0.0 0.0 0.00 0.00 0.00 85 1015.7
20260505091946 56 11 0.0 0.0 0.00 0.00 0.00 85 1015.6
20260505091448 56 12 0.0 0.0 0.00 0.00 0.00 85 1015.6
20260505091437 56 12 0.0 0.0 0.00 0.00 0.00 83 1015.7
20260505090929 56 12 0.0 0.0 0.00 0.00 0.00 85 1015.7
20260505085930 56 11 0.0 0.0 0.00 0.00 0.00 85 1015.8
20260505085422 56 11 0.0 0.0 0.00 0.00 0.00 85 1015.8
20260505084919 56 12 0.0 0.0 0.00 0.00 0.00 86 1015.7
20260505084416 56 12 0.0 0.0 0.00 0.00 0.00 84 1015.7
20260505083918 56 11 0.0 0.0 0.00 0.00 0.00 84 1015.7
20260505083414 56 11 0.0 0.0 0.00 0.00 0.00 85 1015.6
20260505082918 56 11 0.0 0.0 0.00 0.00 0.00 84 1015.4
20260505082912 56 11 0.0 0.0 0.00 0.00 0.00 84 1015.5
20260505081906 56 12 0.0 0.0 0.00 0.00 0.00 84 1015.5
20260505081406 56 12 0.0 0.0 0.00 0.00 0.00 85 1015.4
20260505081348 56 12 0.0 0.0 0.00 0.00 0.00 83 1015.4
20260505080832 56 12 0.0 0.0 0.00 0.00 0.00 82 1015.3
20260505080437 56 12 0.0 0.0 0.00 0.00 0.00 83 1015.4